| time (UTC) | temp F | wind direction | speed MPH | gust MPH | rain 1hr in | rain 24hr in | rain mn in | humidity % | barometer mb |
| 20260904050901 | 62 | 105 | 0.0 | 0.0 | 0.00 | 0.00 | 0.00 | 66 | 1023.1 |
| 20260904050648 | 62 | 102 | 0.0 | 3.0 | 0.00 | 0.00 | 0.00 | 66 | 1023.2 |
| 20260904050123 | 61 | 93 | 0.0 | 3.0 | 0.00 | 0.00 | 0.00 | 67 | 1023.2 |
| 20260904045918 | 61 | 231 | 0.0 | 3.0 | 0.00 | 0.00 | 0.00 | 67 | 1023.2 |
| 20260904045715 | 61 | 84 | 0.0 | 3.0 | 0.00 | 0.00 | 0.00 | 67 | 1023.2 |
| 20260904045511 | 61 | 92 | 0.0 | 3.0 | 0.00 | 0.00 | 0.00 | 67 | 1023.3 |
| 20260904045306 | 62 | 183 | 0.0 | 3.0 | 0.00 | 0.00 | 0.00 | 67 | 1023.2 |
| 20260904045059 | 62 | 127 | 0.0 | 3.0 | 0.00 | 0.00 | 0.00 | 66 | 1023.1 |
| 20260904044858 | 61 | 210 | 0.0 | 3.0 | 0.00 | 0.00 | 0.00 | 66 | 1023.1 |
| 20260904044657 | 61 | 236 | 0.0 | 3.0 | 0.00 | 0.00 | 0.00 | 67 | 1023.2 |
| 20260904044447 | 61 | 213 | 0.0 | 5.0 | 0.00 | 0.00 | 0.00 | 68 | 1023.2 |
| 20260904044244 | 61 | 82 | 0.0 | 5.0 | 0.00 | 0.00 | 0.00 | 68 | 1023.2 |
| 20260904044043 | 61 | 85 | 0.0 | 5.0 | 0.00 | 0.00 | 0.00 | 68 | 1023.2 |
| 20260904043835 | 61 | 103 | 1.0 | 5.0 | 0.00 | 0.00 | 0.00 | 68 | 1023.2 |
| 20260904043625 | 61 | 120 | 1.0 | 5.0 | 0.00 | 0.00 | 0.00 | 68 | 1023.3 |
| 20260904043423 | 61 | 169 | 2.0 | 5.0 | 0.00 | 0.00 | 0.00 | 68 | 1023.3 |
| 20260904043221 | 61 | 88 | 2.0 | 5.0 | 0.00 | 0.00 | 0.00 | 67 | 1023.2 |
| 20260904043021 | 62 | 129 | 2.0 | 5.0 | 0.00 | 0.00 | 0.00 | 67 | 1023.2 |
| 20260904042457 | 63 | 104 | 0.0 | 4.0 | 0.00 | 0.00 | 0.00 | 64 | 1023.3 |
| 20260904042256 | 64 | 97 | 0.0 | 3.0 | 0.00 | 0.00 | 0.00 | 62 | 1023.3 |
| 20260904042049 | 64 | 243 | 0.0 | 1.0 | 0.00 | 0.00 | 0.00 | 61 | 1023.3 |
| 20260904041839 | 64 | 254 | 0.0 | 0.0 | 0.00 | 0.00 | 0.00 | 60 | 1023.3 |
| 20260904041631 | 64 | 240 | 0.0 | 0.0 | 0.00 | 0.00 | 0.00 | 60 | 1023.3 |
| 20260904041425 | 65 | 239 | 0.0 | 0.0 | 0.00 | 0.00 | 0.00 | 60 | 1023.3 |
| 20260904041225 | 64 | 274 | 0.0 | 3.0 | 0.00 | 0.00 | 0.00 | 60 | 1023.4 |
| 20260904040653 | 64 | 247 | 0.0 | 3.0 | 0.00 | 0.00 | 0.00 | 61 | 1023.3 |
| 20260904040131 | 63 | 248 | 0.0 | 3.0 | 0.00 | 0.00 | 0.00 | 62 | 1023.4 |
| 20260904035928 | 63 | 230 | 0.0 | 2.0 | 0.00 | 0.00 | 0.00 | 62 | 1023.4 |
| 20260904035727 | 63 | 203 | 0.0 | 1.0 | 0.00 | 0.00 | 0.00 | 63 | 1023.3 |
| 20260904035517 | 63 | 63 | 0.0 | 0.0 | 0.00 | 0.00 | 0.00 | 63 | 1023.3 |
| 20260904035311 | 63 | 75 | 0.0 | 2.0 | 0.00 | 0.00 | 0.00 | 63 | 1023.5 |
| 20260904035101 | 63 | 93 | 0.0 | 2.0 | 0.00 | 0.00 | 0.00 | 63 | 1023.4 |
| 20260904034856 | 64 | 156 | 0.0 | 0.0 | 0.00 | 0.00 | 0.00 | 62 | 1023.4 |
| 20260904034652 | 64 | 101 | 0.0 | 1.0 | 0.00 | 0.00 | 0.00 | 61 | 1023.5 |
| 20260904034447 | 64 | 113 | 0.0 | 0.0 | 0.00 | 0.00 | 0.00 | 61 | 1023.4 |
| 20260904034244 | 64 | 113 | 0.0 | 1.0 | 0.00 | 0.00 | 0.00 | 61 | 1023.6 |
| 20260904033714 | 64 | 233 | 0.0 | 0.0 | 0.00 | 0.00 | 0.00 | 61 | 1023.6 |
| 20260904033508 | 64 | 233 | 0.0 | 0.0 | 0.00 | 0.00 | 0.00 | 60 | 1023.6 |
| 20260904033258 | 64 | 233 | 0.0 | 0.0 | 0.00 | 0.00 | 0.00 | 61 | 1023.5 |
| 20260904033052 | 64 | 229 | 0.0 | 0.0 | 0.00 | 0.00 | 0.00 | 61 | 1023.5 |
| 20260904032219 | 64 | 229 | 0.0 | 0.0 | 0.00 | 0.00 | 0.00 | 64 | 1023.7 |
| 20260904032011 | 64 | 229 | 0.0 | 0.0 | 0.00 | 0.00 | 0.00 | 64 | 1023.7 |
| 20260904031803 | 63 | 229 | 0.0 | 0.0 | 0.00 | 0.00 | 0.00 | 64 | 1023.7 |
| 20260904031558 | 63 | 229 | 0.0 | 0.0 | 0.00 | 0.00 | 0.00 | 64 | 1023.7 |
| 20260904031349 | 63 | 229 | 0.0 | 0.0 | 0.00 | 0.00 | 0.00 | 64 | 1023.7 |
| 20260904031142 | 63 | 227 | 0.0 | 0.0 | 0.00 | 0.00 | 0.00 | 64 | 1023.7 |
| 20260904030619 | 62 | 229 | 0.0 | 0.0 | 0.00 | 0.00 | 0.00 | 66 | 1023.7 |
| 20260904030407 | 62 | 229 | 0.0 | 0.0 | 0.00 | 0.00 | 0.00 | 67 | 1023.7 |
| 20260904030206 | 62 | 224 | 0.0 | 4.0 | 0.00 | 0.00 | 0.00 | 67 | 1023.7 |
| 20260904030006 | 61 | 220 | 0.0 | 4.0 | 0.00 | 0.00 | 0.00 | 69 | 1023.7 |
| 20260904025758 | 61 | 103 | 1.0 | 4.0 | 0.00 | 0.00 | 0.00 | 70 | 1023.7 |
| 20260904025556 | 61 | 96 | 2.0 | 4.0 | 0.00 | 0.00 | 0.00 | 70 | 1023.8 |
| 20260904025346 | 61 | 116 | 2.0 | 4.0 | 0.00 | 0.00 | 0.00 | 70 | 1023.7 |
| 20260904025138 | 61 | 94 | 2.0 | 5.0 | 0.00 | 0.00 | 0.00 | 70 | 1023.7 |
| 20260904024939 | 61 | 94 | 2.0 | 5.0 | 0.00 | 0.00 | 0.00 | 70 | 1023.8 |
| 20260904024413 | 61 | 107 | 2.0 | 5.0 | 0.00 | 0.00 | 0.00 | 69 | 1023.8 |
| 20260904024210 | 61 | 135 | 2.0 | 7.0 | 0.00 | 0.00 | 0.00 | 69 | 1023.8 |
| 20260904023323 | 61 | 111 | 3.0 | 7.0 | 0.00 | 0.00 | 0.00 | 70 | 1023.9 |
| 20260904023114 | 61 | 112 | 3.0 | 7.0 | 0.00 | 0.00 | 0.00 | 70 | 1023.9 |
| 20260904022908 | 61 | 123 | 3.0 | 7.0 | 0.00 | 0.00 | 0.00 | 70 | 1023.9 |
| 20260904022704 | 60 | 121 | 3.0 | 7.0 | 0.00 | 0.00 | 0.00 | 70 | 1024.1 |
| 20260904022133 | 60 | 124 | 2.0 | 5.0 | 0.00 | 0.00 | 0.00 | 70 | 1024.1 |
| 20260904021927 | 60 | 98 | 2.0 | 5.0 | 0.00 | 0.00 | 0.00 | 70 | 1024.1 |
| 20260904021354 | 61 | 110 | 2.0 | 4.0 | 0.00 | 0.00 | 0.00 | 70 | 1024.2 |
| 20260904021148 | 61 | 122 | 1.0 | 4.0 | 0.00 | 0.00 | 0.00 | 69 | 1024.2 |
| 20260904020939 | 61 | 126 | 1.0 | 4.0 | 0.00 | 0.00 | 0.00 | 68 | 1024.2 |
| 20260904020410 | 63 | 117 | 0.0 | 3.0 | 0.00 | 0.00 | 0.00 | 67 | 1024.2 |
| 20260904020205 | 64 | 77 | 0.0 | 3.0 | 0.00 | 0.00 | 0.00 | 67 | 1024.2 |
| 20260904020004 | 64 | 117 | 0.0 | 0.0 | 0.00 | 0.00 | 0.00 | 67 | 1024.2 |
| 20260904015437 | 63 | 154 | 0.0 | 0.0 | 0.00 | 0.00 | 0.00 | 67 | 1024.1 |
| 20260904014921 | 63 | 154 | 0.0 | 0.0 | 0.00 | 0.00 | 0.00 | 67 | 1024.2 |
| 20260904014716 | 63 | 154 | 0.0 | 0.0 | 0.00 | 0.00 | 0.00 | 67 | 1024.2 |
| 20260904014509 | 63 | 154 | 0.0 | 0.0 | 0.00 | 0.00 | 0.00 | 66 | 1024.3 |
| 20260904014309 | 63 | 154 | 0.0 | 0.0 | 0.00 | 0.00 | 0.00 | 67 | 1024.3 |
| 20260904014106 | 63 | 154 | 0.0 | 0.0 | 0.00 | 0.00 | 0.00 | 67 | 1024.2 |
| 20260904013905 | 64 | 154 | 0.0 | 0.0 | 0.00 | 0.00 | 0.00 | 67 | 1024.3 |
| 20260904013658 | 63 | 154 | 0.0 | 0.0 | 0.00 | 0.00 | 0.00 | 67 | 1024.3 |
| 20260904013449 | 63 | 154 | 0.0 | 0.0 | 0.00 | 0.00 | 0.00 | 67 | 1024.2 |
| 20260904012610 | 62 | 154 | 0.0 | 5.0 | 0.00 | 0.00 | 0.00 | 69 | 1024.3 |
| 20260904012407 | 62 | 148 | 0.0 | 5.0 | 0.00 | 0.00 | 0.00 | 70 | 1024.4 |
| 20260904012203 | 61 | 144 | 0.0 | 5.0 | 0.00 | 0.00 | 0.00 | 70 | 1024.4 |
| 20260904012001 | 61 | 160 | 1.0 | 5.0 | 0.00 | 0.00 | 0.00 | 70 | 1024.4 |
| 20260904011757 | 61 | 214 | 1.0 | 5.0 | 0.00 | 0.00 | 0.00 | 70 | 1024.5 |
| 20260904011549 | 61 | 96 | 2.0 | 5.0 | 0.00 | 0.00 | 0.00 | 69 | 1024.5 |
| 20260904011346 | 61 | 55 | 2.0 | 5.0 | 0.00 | 0.00 | 0.00 | 70 | 1024.5 |
| 20260904011143 | 61 | 105 | 2.0 | 5.0 | 0.00 | 0.00 | 0.00 | 69 | 1024.5 |
| 20260904010614 | 62 | 114 | 1.0 | 4.0 | 0.00 | 0.00 | 0.00 | 69 | 1024.5 |
| 20260904010055 | 63 | 125 | 0.0 | 3.0 | 0.00 | 0.00 | 0.00 | 67 | 1024.6 |
| 20260904005855 | 63 | 54 | 0.0 | 2.0 | 0.00 | 0.00 | 0.00 | 67 | 1024.6 |
| 20260904005653 | 63 | 89 | 0.0 | 1.0 | 0.00 | 0.00 | 0.00 | 67 | 1024.6 |
| 20260904005118 | 62 | 144 | 0.0 | 0.0 | 0.00 | 0.00 | 0.00 | 67 | 1024.6 |
| 20260904004912 | 63 | 144 | 0.0 | 0.0 | 0.00 | 0.00 | 0.00 | 67 | 1024.6 |
| 20260904004713 | 63 | 144 | 0.0 | 0.0 | 0.00 | 0.00 | 0.00 | 67 | 1024.6 |
| 20260904004512 | 63 | 144 | 0.0 | 0.0 | 0.00 | 0.00 | 0.00 | 67 | 1024.6 |
| 20260904004308 | 63 | 144 | 0.0 | 0.0 | 0.00 | 0.00 | 0.00 | 67 | 1024.7 |
| 20260904004106 | 63 | 144 | 0.0 | 0.0 | 0.00 | 0.00 | 0.00 | 67 | 1024.6 |
| 20260904003900 | 63 | 144 | 0.0 | 0.0 | 0.00 | 0.00 | 0.00 | 67 | 1024.7 |
| 20260904003653 | 63 | 144 | 0.0 | 0.0 | 0.00 | 0.00 | 0.00 | 67 | 1024.7 |
| 20260904003454 | 63 | 144 | 0.0 | 0.0 | 0.00 | 0.00 | 0.00 | 66 | 1024.7 |
| 20260904003248 | 63 | 144 | 0.0 | 0.0 | 0.00 | 0.00 | 0.00 | 67 | 1024.7 |
| 20260904003038 | 63 | 144 | 0.0 | 0.0 | 0.00 | 0.00 | 0.00 | 66 | 1024.8 |
| 20260904002829 | 63 | 145 | 0.0 | 0.0 | 0.00 | 0.00 | 0.00 | 66 | 1024.8 |
| 20260904002621 | 64 | 144 | 0.0 | 0.0 | 0.00 | 0.00 | 0.00 | 66 | 1024.9 |
| 20260904002414 | 64 | 144 | 0.0 | 0.0 | 0.00 | 0.00 | 0.00 | 65 | 1024.9 |
| 20260904002208 | 64 | 144 | 0.0 | 0.0 | 0.00 | 0.00 | 0.00 | 65 | 1024.8 |
| 20260904001958 | 64 | 144 | 0.0 | 0.0 | 0.00 | 0.00 | 0.00 | 65 | 1024.8 |
| 20260904001750 | 64 | 144 | 0.0 | 0.0 | 0.00 | 0.00 | 0.00 | 65 | 1024.9 |
| 20260904001548 | 64 | 144 | 0.0 | 0.0 | 0.00 | 0.00 | 0.00 | 65 | 1024.9 |
| 20260904001339 | 64 | 144 | 0.0 | 0.0 | 0.00 | 0.00 | 0.00 | 66 | 1024.8 |
| 20260904001135 | 64 | 144 | 0.0 | 0.0 | 0.00 | 0.00 | 0.00 | 66 | 1024.8 |
| 20260904000928 | 64 | 144 | 0.0 | 1.0 | 0.00 | 0.00 | 0.00 | 66 | 1024.8 |
| 20260904000722 | 63 | 130 | 0.0 | 1.0 | 0.00 | 0.00 | 0.00 | 67 | 1024.8 |
| 20260904000516 | 64 | 131 | 0.0 | 1.0 | 0.00 | 0.00 | 0.00 | 66 | 1024.9 |
| 20260904000305 | 64 | 119 | 0.0 | 1.0 | 0.00 | 0.00 | 0.00 | 66 | 1025.0 |
| 20260904000055 | 64 | 135 | 0.0 | 0.0 | 0.00 | 0.00 | 0.00 | 65 | 1025.0 |
| 20260903235855 | 64 | 135 | 0.0 | 1.0 | 0.00 | 0.00 | 0.00 | 65 | 1024.9 |
| 20260903235649 | 64 | 135 | 0.0 | 1.0 | 0.00 | 0.00 | 0.00 | 65 | 1024.8 |
| 20260903235441 | 64 | 134 | 0.0 | 0.0 | 0.00 | 0.00 | 0.00 | 65 | 1024.8 |
| 20260903235234 | 64 | 133 | 0.0 | 1.0 | 0.00 | 0.00 | 0.00 | 65 | 1024.7 |
| 20260903235034 | 64 | 127 | 0.0 | 3.0 | 0.00 | 0.00 | 0.00 | 65 | 1024.7 |
| 20260903234510 | 64 | 132 | 0.0 | 3.0 | 0.00 | 0.00 | 0.00 | 67 | 1024.8 |
| 20260903234310 | 63 | 132 | 0.0 | 3.0 | 0.00 | 0.00 | 0.00 | 68 | 1024.8 |
| 20260903233742 | 62 | 140 | 1.0 | 5.0 | 0.00 | 0.00 | 0.00 | 68 | 1024.9 |
| 20260903233532 | 62 | 75 | 2.0 | 5.0 | 0.00 | 0.00 | 0.00 | 68 | 1024.9 |
| 20260903233008 | 62 | 110 | 3.0 | 5.0 | 0.00 | 0.00 | 0.00 | 67 | 1024.9 |
| 20260903232808 | 62 | 117 | 2.0 | 5.0 | 0.00 | 0.00 | 0.00 | 67 | 1024.9 |
| 20260903232608 | 62 | 125 | 2.0 | 5.0 | 0.00 | 0.00 | 0.00 | 67 | 1024.9 |
| 20260903232405 | 62 | 134 | 2.0 | 5.0 | 0.00 | 0.00 | 0.00 | 67 | 1024.9 |
| 20260903232201 | 62 | 103 | 1.0 | 3.0 | 0.00 | 0.00 | 0.00 | 68 | 1025.1 |
| 20260903231950 | 62 | 91 | 1.0 | 3.0 | 0.00 | 0.00 | 0.00 | 68 | 1025.0 |
| 20260903231745 | 63 | 91 | 1.0 | 3.0 | 0.00 | 0.00 | 0.00 | 68 | 1025.0 |
| 20260903231536 | 63 | 128 | 0.0 | 3.0 | 0.00 | 0.00 | 0.00 | 67 | 1025.0 |
| 20260903231331 | 63 | 109 | 0.0 | 3.0 | 0.00 | 0.00 | 0.00 | 67 | 1025.1 |
| 20260903231122 | 63 | 119 | 0.0 | 3.0 | 0.00 | 0.00 | 0.00 | 66 | 1025.1 |
| 20260903230922 | 64 | 103 | 0.0 | 0.0 | 0.00 | 0.00 | 0.00 | 67 | 1025.0 |
| 20260903230717 | 64 | 81 | 0.0 | 1.0 | 0.00 | 0.00 | 0.00 | 67 | 1025.0 |
| 20260903230515 | 64 | 134 | 0.0 | 1.0 | 0.00 | 0.00 | 0.00 | 67 | 1025.0 |
| 20260903230313 | 64 | 156 | 0.0 | 0.0 | 0.00 | 0.00 | 0.00 | 67 | 1025.0 |
| 20260903230104 | 64 | 193 | 0.0 | 0.0 | 0.00 | 0.00 | 0.00 | 67 | 1024.9 |
| 20260903225540 | 64 | 193 | 0.0 | 0.0 | 0.00 | 0.00 | 0.00 | 67 | 1025.0 |
| 20260903225338 | 64 | 193 | 0.0 | 0.0 | 0.00 | 0.00 | 0.00 | 66 | 1025.0 |
| 20260903225138 | 64 | 193 | 0.0 | 0.0 | 0.00 | 0.00 | 0.00 | 66 | 1025.0 |
| 20260903224929 | 64 | 193 | 0.0 | 0.0 | 0.00 | 0.00 | 0.00 | 66 | 1025.0 |
| 20260903224728 | 64 | 193 | 0.0 | 0.0 | 0.00 | 0.00 | 0.00 | 66 | 1025.0 |
| 20260903224157 | 65 | 193 | 0.0 | 0.0 | 0.00 | 0.00 | 0.00 | 65 | 1025.1 |
| 20260903223950 | 65 | 193 | 0.0 | 0.0 | 0.00 | 0.00 | 0.00 | 64 | 1025.2 |
| 20260903223746 | 65 | 193 | 0.0 | 0.0 | 0.00 | 0.00 | 0.00 | 64 | 1025.2 |
| 20260903223536 | 65 | 193 | 0.0 | 0.0 | 0.00 | 0.00 | 0.00 | 64 | 1025.3 |
| 20260903223327 | 65 | 193 | 0.0 | 0.0 | 0.00 | 0.00 | 0.00 | 63 | 1025.2 |
| 20260903223122 | 65 | 193 | 0.0 | 0.0 | 0.00 | 0.00 | 0.00 | 63 | 1025.2 |
| 20260903222923 | 66 | 193 | 0.0 | 0.0 | 0.00 | 0.00 | 0.00 | 63 | 1025.2 |
| 20260903222723 | 66 | 193 | 0.0 | 0.0 | 0.00 | 0.00 | 0.00 | 63 | 1025.2 |
| 20260903222522 | 66 | 193 | 0.0 | 0.0 | 0.00 | 0.00 | 0.00 | 63 | 1025.2 |
| 20260903222316 | 65 | 203 | 0.0 | 0.0 | 0.00 | 0.00 | 0.00 | 63 | 1025.2 |
| 20260903222111 | 65 | 203 | 0.0 | 0.0 | 0.00 | 0.00 | 0.00 | 63 | 1025.2 |
| 20260903221909 | 65 | 203 | 0.0 | 0.0 | 0.00 | 0.00 | 0.00 | 63 | 1025.2 |
| 20260903221707 | 65 | 205 | 0.0 | 0.0 | 0.00 | 0.00 | 0.00 | 64 | 1025.2 |
| 20260903221507 | 65 | 205 | 0.0 | 0.0 | 0.00 | 0.00 | 0.00 | 63 | 1025.2 |
| 20260903220625 | 65 | 248 | 0.0 | 0.0 | 0.00 | 0.00 | 0.00 | 64 | 1025.3 |
| 20260903220416 | 65 | 248 | 0.0 | 0.0 | 0.00 | 0.00 | 0.00 | 64 | 1025.3 |
| 20260903220205 | 65 | 247 | 0.0 | 0.0 | 0.00 | 0.00 | 0.00 | 64 | 1025.3 |
| 20260903220001 | 65 | 248 | 0.0 | 0.0 | 0.00 | 0.00 | 0.00 | 64 | 1025.3 |
| 20260903215801 | 65 | 247 | 0.0 | 0.0 | 0.00 | 0.00 | 0.00 | 64 | 1025.3 |
| 20260903215553 | 65 | 248 | 0.0 | 0.0 | 0.00 | 0.00 | 0.00 | 64 | 1025.3 |
| 20260903215028 | 65 | 248 | 0.0 | 0.0 | 0.00 | 0.00 | 0.00 | 64 | 1025.4 |
| 20260903214824 | 65 | 248 | 0.0 | 0.0 | 0.00 | 0.00 | 0.00 | 64 | 1025.4 |
| 20260903214618 | 65 | 248 | 0.0 | 0.0 | 0.00 | 0.00 | 0.00 | 64 | 1025.5 |
| 20260903214413 | 65 | 248 | 0.0 | 0.0 | 0.00 | 0.00 | 0.00 | 64 | 1025.4 |
| 20260903214213 | 65 | 247 | 0.0 | 0.0 | 0.00 | 0.00 | 0.00 | 64 | 1025.4 |
| 20260903214002 | 65 | 248 | 0.0 | 0.0 | 0.00 | 0.00 | 0.00 | 64 | 1025.5 |
| 20260903213753 | 65 | 248 | 0.0 | 0.0 | 0.00 | 0.00 | 0.00 | 64 | 1025.5 |
| 20260903213544 | 65 | 248 | 0.0 | 0.0 | 0.00 | 0.00 | 0.00 | 65 | 1025.5 |
| 20260903213338 | 65 | 248 | 0.0 | 0.0 | 0.00 | 0.00 | 0.00 | 65 | 1025.5 |
| 20260903213132 | 64 | 248 | 0.0 | 0.0 | 0.00 | 0.00 | 0.00 | 65 | 1025.6 |
| 20260903212926 | 64 | 248 | 0.0 | 0.0 | 0.00 | 0.00 | 0.00 | 65 | 1025.5 |
| 20260903212725 | 64 | 248 | 0.0 | 0.0 | 0.00 | 0.00 | 0.00 | 65 | 1025.5 |
| 20260903212515 | 64 | 248 | 0.0 | 0.0 | 0.00 | 0.00 | 0.00 | 65 | 1025.6 |
| 20260903212312 | 65 | 248 | 0.0 | 0.0 | 0.00 | 0.00 | 0.00 | 65 | 1025.5 |
| 20260903212112 | 65 | 248 | 0.0 | 0.0 | 0.00 | 0.00 | 0.00 | 66 | 1025.5 |
| 20260903211904 | 65 | 248 | 0.0 | 0.0 | 0.00 | 0.00 | 0.00 | 66 | 1025.4 |
| 20260903211703 | 65 | 248 | 0.0 | 0.0 | 0.00 | 0.00 | 0.00 | 66 | 1025.4 |
| 20260903211453 | 65 | 247 | 0.0 | 0.0 | 0.00 | 0.00 | 0.00 | 65 | 1025.5 |
| 20260903211244 | 65 | 248 | 0.0 | 0.0 | 0.00 | 0.00 | 0.00 | 65 | 1025.5 |
| 20260903211045 | 65 | 248 | 0.0 | 0.0 | 0.00 | 0.00 | 0.00 | 65 | 1025.5 |
| 20260903210836 | 65 | 248 | 0.0 | 0.0 | 0.00 | 0.00 | 0.00 | 65 | 1025.5 |
| 20260903210630 | 65 | 248 | 0.0 | 0.0 | 0.00 | 0.00 | 0.00 | 65 | 1025.6 |
| 20260903210422 | 65 | 247 | 0.0 | 0.0 | 0.00 | 0.00 | 0.00 | 65 | 1025.6 |
| 20260903210216 | 65 | 248 | 0.0 | 0.0 | 0.00 | 0.00 | 0.00 | 65 | 1025.5 |
| 20260903210007 | 65 | 248 | 0.0 | 0.0 | 0.00 | 0.00 | 0.00 | 65 | 1025.5 |
| 20260903205800 | 65 | 248 | 0.0 | 0.0 | 0.00 | 0.00 | 0.00 | 65 | 1025.6 |
| 20260903205552 | 65 | 248 | 0.0 | 0.0 | 0.00 | 0.00 | 0.00 | 64 | 1025.6 |
| 20260903205027 | 65 | 248 | 0.0 | 0.0 | 0.00 | 0.00 | 0.00 | 64 | 1025.4 |
| 20260903204826 | 66 | 248 | 0.0 | 0.0 | 0.00 | 0.00 | 0.00 | 64 | 1025.5 |
| 20260903204619 | 66 | 248 | 0.0 | 0.0 | 0.00 | 0.00 | 0.00 | 63 | 1025.5 |
| 20260903204419 | 66 | 247 | 0.0 | 0.0 | 0.00 | 0.00 | 0.00 | 63 | 1025.5 |
| 20260903204212 | 66 | 247 | 0.0 | 0.0 | 0.00 | 0.00 | 0.00 | 63 | 1025.4 |
| 20260903204013 | 66 | 248 | 0.0 | 0.0 | 0.00 | 0.00 | 0.00 | 63 | 1025.5 |
| 20260903203118 | 67 | 247 | 0.0 | 0.0 | 0.00 | 0.00 | 0.00 | 62 | 1025.4 |
| 20260903202911 | 67 | 247 | 0.0 | 0.0 | 0.00 | 0.00 | 0.00 | 62 | 1025.4 |
| 20260903202659 | 67 | 248 | 0.0 | 2.0 | 0.00 | 0.00 | 0.00 | 62 | 1025.4 |
| 20260903202454 | 67 | 241 | 0.0 | 2.0 | 0.00 | 0.00 | 0.00 | 62 | 1025.4 |
| 20260903201605 | 67 | 240 | 0.0 | 1.0 | 0.00 | 0.00 | 0.00 | 62 | 1025.3 |
| 20260903201406 | 67 | 240 | 0.0 | 1.0 | 0.00 | 0.00 | 0.00 | 62 | 1025.3 |
| 20260903201158 | 67 | 237 | 0.0 | 1.0 | 0.00 | 0.00 | 0.00 | 62 | 1025.3 |
| 20260903200958 | 67 | 244 | 0.0 | 1.0 | 0.00 | 0.00 | 0.00 | 62 | 1025.3 |
| 20260903200753 | 67 | 239 | 0.0 | 1.0 | 0.00 | 0.00 | 0.00 | 62 | 1025.3 |
| 20260903200544 | 67 | 239 | 0.0 | 0.0 | 0.00 | 0.00 | 0.00 | 62 | 1025.3 |
| 20260903200340 | 67 | 239 | 0.0 | 0.0 | 0.00 | 0.00 | 0.00 | 61 | 1025.3 |
| 20260903200140 | 67 | 239 | 0.0 | 0.0 | 0.00 | 0.00 | 0.00 | 61 | 1025.3 |
| 20260903195941 | 67 | 239 | 0.0 | 2.0 | 0.00 | 0.00 | 0.00 | 61 | 1025.3 |
| 20260903195732 | 67 | 239 | 0.0 | 2.0 | 0.00 | 0.00 | 0.00 | 61 | 1025.2 |
| 20260903195530 | 67 | 235 | 0.0 | 2.0 | 0.00 | 0.00 | 0.00 | 61 | 1025.3 |
| 20260903195332 | 68 | 245 | 0.0 | 2.0 | 0.00 | 0.00 | 0.00 | 61 | 1025.3 |
| 20260903195121 | 68 | 236 | 0.0 | 2.0 | 0.00 | 0.00 | 0.00 | 60 | 1025.3 |
| 20260903194914 | 68 | 233 | 0.0 | 2.0 | 0.00 | 0.00 | 0.00 | 60 | 1025.3 |
| 20260903194706 | 68 | 238 | 0.0 | 2.0 | 0.00 | 0.00 | 0.00 | 60 | 1025.3 |
| 20260903193822 | 68 | 235 | 1.0 | 2.0 | 0.00 | 0.00 | 0.00 | 60 | 1025.3 |
| 20260903193620 | 68 | 230 | 1.0 | 2.0 | 0.00 | 0.00 | 0.00 | 60 | 1025.3 |
| 20260903193421 | 68 | 236 | 1.0 | 2.0 | 0.00 | 0.00 | 0.00 | 60 | 1025.3 |
| 20260903193211 | 68 | 234 | 1.0 | 2.0 | 0.00 | 0.00 | 0.00 | 59 | 1025.2 |
| 20260903193006 | 68 | 239 | 1.0 | 2.0 | 0.00 | 0.00 | 0.00 | 59 | 1025.2 |
| 20260903192756 | 68 | 241 | 1.0 | 2.0 | 0.00 | 0.00 | 0.00 | 59 | 1025.1 |
| 20260903192553 | 68 | 236 | 0.0 | 2.0 | 0.00 | 0.00 | 0.00 | 58 | 1025.0 |
| 20260903192353 | 68 | 240 | 0.0 | 2.0 | 0.00 | 0.00 | 0.00 | 58 | 1025.2 |
| 20260903192151 | 68 | 244 | 0.0 | 2.0 | 0.00 | 0.00 | 0.00 | 58 | 1025.1 |
| 20260903191951 | 68 | 221 | 0.0 | 2.0 | 0.00 | 0.00 | 0.00 | 58 | 1025.0 |
| 20260903191746 | 68 | 255 | 0.0 | 1.0 | 0.00 | 0.00 | 0.00 | 58 | 1025.0 |
| 20260903191543 | 68 | 253 | 0.0 | 1.0 | 0.00 | 0.00 | 0.00 | 58 | 1025.1 |
| 20260903191339 | 68 | 238 | 0.0 | 1.0 | 0.00 | 0.00 | 0.00 | 57 | 1025.0 |
| 20260903191133 | 68 | 234 | 0.0 | 1.0 | 0.00 | 0.00 | 0.00 | 57 | 1025.0 |
| 20260903190925 | 68 | 233 | 0.0 | 0.0 | 0.00 | 0.00 | 0.00 | 58 | 1025.0 |
| 20260903190725 | 68 | 231 | 0.0 | 0.0 | 0.00 | 0.00 | 0.00 | 58 | 1025.0 |
| 20260903190516 | 68 | 238 | 0.0 | 0.0 | 0.00 | 0.00 | 0.00 | 58 | 1025.0 |
| 20260903190308 | 68 | 238 | 0.0 | 0.0 | 0.00 | 0.00 | 0.00 | 57 | 1025.0 |
| 20260903190105 | 68 | 238 | 0.0 | 0.0 | 0.00 | 0.00 | 0.00 | 57 | 1025.0 |
| 20260903185856 | 69 | 238 | 0.0 | 0.0 | 0.00 | 0.00 | 0.00 | 57 | 1024.9 |
| 20260903185648 | 68 | 238 | 0.0 | 2.0 | 0.00 | 0.00 | 0.00 | 57 | 1025.0 |
| 20260903185440 | 68 | 238 | 0.0 | 2.0 | 0.00 | 0.00 | 0.00 | 57 | 1025.0 |
| 20260903184556 | 68 | 236 | 0.0 | 0.0 | 0.00 | 0.00 | 0.00 | 57 | 1024.8 |
| 20260903184355 | 68 | 236 | 0.0 | 0.0 | 0.00 | 0.00 | 0.00 | 57 | 1024.8 |
| 20260903184146 | 68 | 236 | 0.0 | 0.0 | 0.00 | 0.00 | 0.00 | 57 | 1024.7 |
| 20260903183945 | 68 | 236 | 0.0 | 0.0 | 0.00 | 0.00 | 0.00 | 57 | 1024.7 |
| 20260903182751 | 69 | 231 | 0.0 | 0.0 | 0.00 | 0.00 | 0.00 | 56 | 1024.5 |
| 20260903182541 | 69 | 231 | 0.0 | 1.0 | 0.00 | 0.00 | 0.00 | 56 | 1024.6 |
| 20260903182013 | 69 | 251 | 0.0 | 1.0 | 0.00 | 0.00 | 0.00 | 56 | 1024.6 |
| 20260903181812 | 69 | 236 | 0.0 | 0.0 | 0.00 | 0.00 | 0.00 | 56 | 1024.6 |
| 20260903181251 | 69 | 236 | 0.0 | 0.0 | 0.00 | 0.00 | 0.00 | 56 | 1024.6 |
| 20260903181050 | 69 | 236 | 0.0 | 0.0 | 0.00 | 0.00 | 0.00 | 55 | 1024.5 |
| 20260903180519 | 69 | 236 | 0.0 | 0.0 | 0.00 | 0.00 | 0.00 | 56 | 1024.5 |
| 20260903180313 | 69 | 236 | 0.0 | 0.0 | 0.00 | 0.00 | 0.00 | 56 | 1024.5 |
| 20260903180107 | 69 | 236 | 0.0 | 0.0 | 0.00 | 0.00 | 0.00 | 56 | 1024.4 |
| 20260903175538 | 70 | 236 | 0.0 | 0.0 | 0.00 | 0.00 | 0.00 | 56 | 1024.4 |
| 20260903175338 | 70 | 236 | 0.0 | 0.0 | 0.00 | 0.00 | 0.00 | 56 | 1024.5 |
| 20260903175130 | 70 | 236 | 0.0 | 0.0 | 0.00 | 0.00 | 0.00 | 56 | 1024.4 |
| 20260903174924 | 70 | 236 | 0.0 | 0.0 | 0.00 | 0.00 | 0.00 | 56 | 1024.4 |
| 20260903174718 | 71 | 236 | 0.0 | 0.0 | 0.00 | 0.00 | 0.00 | 57 | 1024.4 |
| 20260903174516 | 71 | 236 | 0.0 | 0.0 | 0.00 | 0.00 | 0.00 | 57 | 1024.4 |
| 20260903174315 | 71 | 236 | 0.0 | 0.0 | 0.00 | 0.00 | 0.00 | 57 | 1024.3 |
| 20260903174106 | 71 | 236 | 0.0 | 2.0 | 0.00 | 0.00 | 0.00 | 56 | 1024.4 |
| 20260903173545 | 71 | 235 | 0.0 | 1.0 | 0.00 | 0.00 | 0.00 | 56 | 1024.5 |
| 20260903173343 | 71 | 244 | 0.0 | 0.0 | 0.00 | 0.00 | 0.00 | 56 | 1024.5 |
| 20260903173143 | 71 | 245 | 0.0 | 0.0 | 0.00 | 0.00 | 0.00 | 56 | 1024.6 |
| 20260903172934 | 72 | 245 | 0.0 | 0.0 | 0.00 | 0.00 | 0.00 | 56 | 1024.3 |
| 20260903172047 | 72 | 238 | 0.0 | 3.0 | 0.00 | 0.00 | 0.00 | 55 | 1024.6 |
| 20260903171847 | 72 | 247 | 0.0 | 3.0 | 0.00 | 0.00 | 0.00 | 57 | 1024.6 |
| 20260903171640 | 72 | 252 | 0.0 | 1.0 | 0.00 | 0.00 | 0.00 | 56 | 1024.6 |
| 20260903171436 | 73 | 246 | 0.0 | 1.0 | 0.00 | 0.00 | 0.00 | 55 | 1024.7 |
| 20260903171229 | 73 | 252 | 0.0 | 1.0 | 0.00 | 0.00 | 0.00 | 56 | 1024.6 |
| 20260903171026 | 73 | 252 | 0.0 | 1.0 | 0.00 | 0.00 | 0.00 | 54 | 1024.6 |
| 20260903170827 | 73 | 242 | 0.0 | 1.0 | 0.00 | 0.00 | 0.00 | 54 | 1024.7 |
| 20260903170625 | 73 | 245 | 0.0 | 2.0 | 0.00 | 0.00 | 0.00 | 53 | 1024.6 |
| 20260903170057 | 73 | 224 | 0.0 | 2.0 | 0.00 | 0.00 | 0.00 | 49 | 1024.7 |
| 20260903165849 | 73 | 228 | 0.0 | 1.0 | 0.00 | 0.00 | 0.00 | 51 | 1024.7 |
| 20260903165650 | 73 | 236 | 0.0 | 2.0 | 0.00 | 0.00 | 0.00 | 51 | 1024.7 |
| 20260903165448 | 74 | 234 | 0.0 | 2.0 | 0.00 | 0.00 | 0.00 | 51 | 1024.7 |
| 20260903165242 | 74 | 219 | 0.0 | 2.0 | 0.00 | 0.00 | 0.00 | 53 | 1024.6 |
| 20260903164352 | 75 | 233 | 0.0 | 2.0 | 0.00 | 0.00 | 0.00 | 54 | 1024.6 |
| 20260903163829 | 76 | 240 | 0.0 | 2.0 | 0.00 | 0.00 | 0.00 | 50 | 1024.6 |
| 20260903163619 | 76 | 224 | 0.0 | 1.0 | 0.00 | 0.00 | 0.00 | 47 | 1024.6 |
| 20260903163417 | 76 | 230 | 0.0 | 1.0 | 0.00 | 0.00 | 0.00 | 47 | 1024.6 |
| 20260903163210 | 76 | 275 | 0.0 | 0.0 | 0.00 | 0.00 | 0.00 | 47 | 1024.6 |
| 20260903163007 | 76 | 280 | 0.0 | 0.0 | 0.00 | 0.00 | 0.00 | 45 | 1024.6 |
| 20260903162438 | 77 | 294 | 0.0 | 1.0 | 0.00 | 0.00 | 0.00 | 44 | 1024.5 |
| 20260903162235 | 77 | 309 | 0.0 | 0.0 | 0.00 | 0.00 | 0.00 | 46 | 1024.6 |
| 20260903162025 | 77 | 310 | 0.0 | 2.0 | 0.00 | 0.00 | 0.00 | 45 | 1024.5 |
| 20260903161821 | 76 | 274 | 0.0 | 2.0 | 0.00 | 0.00 | 0.00 | 46 | 1024.6 |
| 20260903161614 | 76 | 304 | 0.0 | 2.0 | 0.00 | 0.00 | 0.00 | 45 | 1024.5 |
| 20260903161407 | 76 | 230 | 0.0 | 2.0 | 0.00 | 0.00 | 0.00 | 45 | 1024.4 |
| 20260903161207 | 76 | 231 | 0.0 | 2.0 | 0.00 | 0.00 | 0.00 | 50 | 1024.4 |
| 20260903160959 | 76 | 233 | 0.0 | 2.0 | 0.00 | 0.00 | 0.00 | 49 | 1024.4 |
| 20260903160446 | 76 | 239 | 0.0 | 3.0 | 0.00 | 0.00 | 0.00 | 51 | 1024.3 |
| 20260903160242 | 76 | 234 | 0.0 | 3.0 | 0.00 | 0.00 | 0.00 | 52 | 1024.4 |
| 20260903160033 | 75 | 238 | 1.0 | 3.0 | 0.00 | 0.00 | 0.00 | 48 | 1024.4 |
| 20260903155824 | 75 | 231 | 1.0 | 5.0 | 0.00 | 0.00 | 0.00 | 51 | 1024.5 |
| 20260903155622 | 75 | 247 | 1.0 | 5.0 | 0.00 | 0.00 | 0.00 | 49 | 1024.5 |
| 20260903155101 | 75 | 235 | 2.0 | 5.0 | 0.00 | 0.00 | 0.00 | 45 | 1024.4 |
| 20260903154859 | 76 | 236 | 2.0 | 5.0 | 0.00 | 0.00 | 0.00 | 48 | 1024.3 |
| 20260903154653 | 76 | 245 | 1.0 | 5.0 | 0.00 | 0.00 | 0.00 | 43 | 1024.3 |
| 20260903154443 | 77 | 235 | 1.0 | 5.0 | 0.00 | 0.00 | 0.00 | 44 | 1024.4 |
| 20260903154235 | 77 | 209 | 0.0 | 5.0 | 0.00 | 0.00 | 0.00 | 44 | 1024.4 |
| 20260903154034 | 77 | 237 | 0.0 | 5.0 | 0.00 | 0.00 | 0.00 | 42 | 1024.3 |
| 20260903153825 | 77 | 262 | 0.0 | 4.0 | 0.00 | 0.00 | 0.00 | 47 | 1024.4 |
| 20260903153616 | 77 | 263 | 0.0 | 4.0 | 0.00 | 0.00 | 0.00 | 47 | 1024.3 |
| 20260903153052 | 77 | 248 | 0.0 | 4.0 | 0.00 | 0.00 | 0.00 | 46 | 1024.3 |
| 20260903152850 | 77 | 239 | 0.0 | 4.0 | 0.00 | 0.00 | 0.00 | 50 | 1024.3 |
| 20260903152331 | 77 | 250 | 0.0 | 3.0 | 0.00 | 0.00 | 0.00 | 47 | 1024.3 |
| 20260903151759 | 77 | 304 | 0.0 | 2.0 | 0.00 | 0.00 | 0.00 | 42 | 1024.4 |
| 20260903151551 | 77 | 315 | 0.0 | 2.0 | 0.00 | 0.00 | 0.00 | 44 | 1024.5 |
| 20260903151348 | 77 | 277 | 0.0 | 1.0 | 0.00 | 0.00 | 0.00 | 46 | 1024.5 |
| 20260903151141 | 76 | 217 | 0.0 | 1.0 | 0.00 | 0.00 | 0.00 | 45 | 1024.5 |
| 20260903150620 | 76 | 256 | 0.0 | 3.0 | 0.00 | 0.00 | 0.00 | 44 | 1024.6 |
| 20260903150420 | 76 | 252 | 0.0 | 3.0 | 0.00 | 0.00 | 0.00 | 45 | 1024.7 |
| 20260903150216 | 76 | 293 | 0.0 | 4.0 | 0.00 | 0.00 | 0.00 | 43 | 1024.6 |
| 20260903150006 | 76 | 297 | 0.0 | 4.0 | 0.00 | 0.00 | 0.00 | 44 | 1024.7 |
| 20260903145758 | 76 | 237 | 1.0 | 4.0 | 0.00 | 0.00 | 0.00 | 44 | 1024.7 |
| 20260903145555 | 76 | 281 | 1.0 | 4.0 | 0.00 | 0.00 | 0.00 | 44 | 1024.6 |
| 20260903145349 | 76 | 276 | 1.0 | 4.0 | 0.00 | 0.00 | 0.00 | 44 | 1024.6 |
| 20260903145144 | 76 | 297 | 1.0 | 6.0 | 0.00 | 0.00 | 0.00 | 44 | 1024.6 |
| 20260903144939 | 76 | 302 | 1.0 | 6.0 | 0.00 | 0.00 | 0.00 | 42 | 1024.5 |
| 20260903144735 | 76 | 307 | 1.0 | 6.0 | 0.00 | 0.00 | 0.00 | 44 | 1024.5 |
| 20260903144527 | 76 | 269 | 1.0 | 6.0 | 0.00 | 0.00 | 0.00 | 43 | 1024.5 |
| 20260903144325 | 76 | 298 | 1.0 | 6.0 | 0.00 | 0.00 | 0.00 | 45 | 1024.5 |
| 20260903144124 | 76 | 285 | 1.0 | 6.0 | 0.00 | 0.00 | 0.00 | 44 | 1024.5 |
| 20260903143924 | 76 | 215 | 1.0 | 6.0 | 0.00 | 0.00 | 0.00 | 45 | 1024.4 |
| 20260903143719 | 76 | 248 | 1.0 | 6.0 | 0.00 | 0.00 | 0.00 | 42 | 1024.4 |
| 20260903143517 | 76 | 278 | 1.0 | 6.0 | 0.00 | 0.00 | 0.00 | 40 | 1024.4 |
| 20260903143309 | 76 | 285 | 1.0 | 6.0 | 0.00 | 0.00 | 0.00 | 44 | 1024.3 |
| 20260903143106 | 76 | 275 | 1.0 | 6.0 | 0.00 | 0.00 | 0.00 | 44 | 1024.4 |
| 20260903142902 | 76 | 242 | 1.0 | 6.0 | 0.00 | 0.00 | 0.00 | 46 | 1024.5 |
| 20260903142657 | 76 | 239 | 1.0 | 6.0 | 0.00 | 0.00 | 0.00 | 47 | 1024.4 |
| 20260903142458 | 76 | 220 | 1.0 | 6.0 | 0.00 | 0.00 | 0.00 | 45 | 1024.5 |
| 20260903142250 | 76 | 245 | 1.0 | 6.0 | 0.00 | 0.00 | 0.00 | 49 | 1024.5 |
| 20260903142046 | 76 | 256 | 1.0 | 6.0 | 0.00 | 0.00 | 0.00 | 45 | 1024.5 |
| 20260903141840 | 76 | 259 | 2.0 | 6.0 | 0.00 | 0.00 | 0.00 | 47 | 1024.5 |
| 20260903141633 | 76 | 236 | 1.0 | 6.0 | 0.00 | 0.00 | 0.00 | 44 | 1024.5 |
| 20260903141111 | 76 | 223 | 1.0 | 5.0 | 0.00 | 0.00 | 0.00 | 43 | 1024.5 |
| 20260903140548 | 76 | 258 | 1.0 | 5.0 | 0.00 | 0.00 | 0.00 | 49 | 1024.5 |
| 20260903140345 | 76 | 255 | 2.0 | 5.0 | 0.00 | 0.00 | 0.00 | 48 | 1024.5 |
| 20260903140135 | 76 | 238 | 2.0 | 5.0 | 0.00 | 0.00 | 0.00 | 47 | 1024.6 |
| 20260903135924 | 76 | 240 | 2.0 | 5.0 | 0.00 | 0.00 | 0.00 | 44 | 1024.6 |
| 20260903135721 | 76 | 255 | 1.0 | 5.0 | 0.00 | 0.00 | 0.00 | 47 | 1024.6 |
| 20260903135513 | 76 | 264 | 1.0 | 5.0 | 0.00 | 0.00 | 0.00 | 47 | 1024.6 |
| 20260903135306 | 76 | 303 | 1.0 | 5.0 | 0.00 | 0.00 | 0.00 | 45 | 1024.6 |
| 20260903135055 | 76 | 303 | 1.0 | 5.0 | 0.00 | 0.00 | 0.00 | 44 | 1024.7 |
| 20260903134845 | 76 | 298 | 1.0 | 5.0 | 0.00 | 0.00 | 0.00 | 44 | 1024.8 |
| 20260903134634 | 76 | 249 | 1.0 | 5.0 | 0.00 | 0.00 | 0.00 | 45 | 1024.7 |
| 20260903134425 | 76 | 241 | 1.0 | 5.0 | 0.00 | 0.00 | 0.00 | 46 | 1024.6 |
| 20260903134224 | 76 | 241 | 1.0 | 5.0 | 0.00 | 0.00 | 0.00 | 46 | 1024.7 |
| 20260903133702 | 77 | 255 | 0.0 | 5.0 | 0.00 | 0.00 | 0.00 | 49 | 1024.7 |
| 20260903133452 | 76 | 258 | 0.0 | 4.0 | 0.00 | 0.00 | 0.00 | 47 | 1024.7 |
| 20260903132929 | 76 | 239 | 0.0 | 4.0 | 0.00 | 0.00 | 0.00 | 48 | 1024.7 |
| 20260903132728 | 75 | 241 | 0.0 | 2.0 | 0.00 | 0.00 | 0.00 | 47 | 1024.7 |
| 20260903132522 | 75 | 231 | 0.0 | 2.0 | 0.00 | 0.00 | 0.00 | 52 | 1024.7 |
| 20260903132314 | 75 | 236 | 0.0 | 2.0 | 0.00 | 0.00 | 0.00 | 49 | 1024.7 |
| 20260903132114 | 75 | 238 | 0.0 | 2.0 | 0.00 | 0.00 | 0.00 | 51 | 1024.7 |
| 20260903131908 | 75 | 290 | 0.0 | 2.0 | 0.00 | 0.00 | 0.00 | 50 | 1024.8 |
| 20260903131344 | 75 | 283 | 0.0 | 5.0 | 0.00 | 0.00 | 0.00 | 50 | 1024.8 |
| 20260903131139 | 75 | 274 | 0.0 | 5.0 | 0.00 | 0.00 | 0.00 | 49 | 1024.8 |
| 20260903130934 | 75 | 273 | 0.0 | 5.0 | 0.00 | 0.00 | 0.00 | 49 | 1024.8 |
| 20260903130725 | 75 | 243 | 0.0 | 5.0 | 0.00 | 0.00 | 0.00 | 51 | 1024.8 |
| 20260903130521 | 75 | 243 | 0.0 | 5.0 | 0.00 | 0.00 | 0.00 | 53 | 1024.8 |
| 20260903130321 | 75 | 250 | 0.0 | 5.0 | 0.00 | 0.00 | 0.00 | 51 | 1024.8 |
| 20260903130116 | 75 | 255 | 0.0 | 5.0 | 0.00 | 0.00 | 0.00 | 51 | 1024.8 |
| 20260903125913 | 75 | 241 | 0.0 | 5.0 | 0.00 | 0.00 | 0.00 | 52 | 1024.9 |
| 20260903125703 | 75 | 233 | 0.0 | 5.0 | 0.00 | 0.00 | 0.00 | 49 | 1024.9 |
| 20260903125458 | 75 | 237 | 0.0 | 3.0 | 0.00 | 0.00 | 0.00 | 52 | 1024.9 |
| 20260903124616 | 74 | 289 | 0.0 | 3.0 | 0.00 | 0.00 | 0.00 | 51 | 1025.0 |
| 20260903124413 | 74 | 258 | 0.0 | 3.0 | 0.00 | 0.00 | 0.00 | 54 | 1025.0 |
| 20260903124213 | 74 | 232 | 0.0 | 3.0 | 0.00 | 0.00 | 0.00 | 54 | 1025.0 |
| 20260903124007 | 74 | 233 | 0.0 | 3.0 | 0.00 | 0.00 | 0.00 | 54 | 1025.1 |
| 20260903123805 | 74 | 294 | 0.0 | 3.0 | 0.00 | 0.00 | 0.00 | 55 | 1025.1 |
| 20260903123558 | 74 | 285 | 0.0 | 3.0 | 0.00 | 0.00 | 0.00 | 53 | 1025.2 |
| 20260903123347 | 74 | 1 | 0.0 | 3.0 | 0.00 | 0.00 | 0.00 | 55 | 1025.1 |
| 20260903123139 | 74 | 8 | 0.0 | 3.0 | 0.00 | 0.00 | 0.00 | 57 | 1025.1 |
| 20260903122934 | 73 | 293 | 0.0 | 3.0 | 0.00 | 0.00 | 0.00 | 55 | 1025.1 |
| 20260903122728 | 74 | 271 | 0.0 | 2.0 | 0.00 | 0.00 | 0.00 | 58 | 1025.1 |
| 20260903122518 | 74 | 285 | 0.0 | 2.0 | 0.00 | 0.00 | 0.00 | 57 | 1025.1 |
| 20260903122315 | 73 | 307 | 0.0 | 2.0 | 0.00 | 0.00 | 0.00 | 59 | 1025.2 |
| 20260903122114 | 73 | 243 | 0.0 | 2.0 | 0.00 | 0.00 | 0.00 | 59 | 1025.1 |
| 20260903121905 | 73 | 251 | 0.0 | 2.0 | 0.00 | 0.00 | 0.00 | 56 | 1025.2 |
| 20260903121332 | 73 | 226 | 0.0 | 4.0 | 0.00 | 0.00 | 0.00 | 55 | 1025.2 |
| 20260903121131 | 73 | 243 | 0.0 | 4.0 | 0.00 | 0.00 | 0.00 | 58 | 1025.2 |
| 20260903120923 | 73 | 248 | 1.0 | 4.0 | 0.00 | 0.00 | 0.00 | 58 | 1025.4 |
| 20260903120719 | 73 | 288 | 0.0 | 5.0 | 0.00 | 0.00 | 0.00 | 58 | 1025.3 |
| 20260903115828 | 73 | 302 | 0.0 | 6.0 | 0.00 | 0.00 | 0.00 | 57 | 1025.0 |
| 20260903115618 | 73 | 270 | 0.0 | 6.0 | 0.00 | 0.00 | 0.00 | 55 | 1025.2 |
| 20260903115411 | 73 | 290 | 0.0 | 6.0 | 0.00 | 0.00 | 0.00 | 55 | 1025.1 |
| 20260903114853 | 73 | 232 | 1.0 | 6.0 | 0.00 | 0.00 | 0.00 | 59 | 1025.3 |
| 20260903114648 | 72 | 275 | 1.0 | 6.0 | 0.00 | 0.00 | 0.00 | 56 | 1025.3 |
| 20260903114440 | 72 | 295 | 1.0 | 6.0 | 0.00 | 0.00 | 0.00 | 57 | 1025.3 |
| 20260903114237 | 73 | 302 | 0.0 | 6.0 | 0.00 | 0.00 | 0.00 | 57 | 1025.4 |
| 20260903114034 | 73 | 291 | 0.0 | 6.0 | 0.00 | 0.00 | 0.00 | 55 | 1025.4 |
| 20260903113825 | 73 | 89 | 0.0 | 1.0 | 0.00 | 0.00 | 0.00 | 56 | 1025.5 |
| 20260903113622 | 73 | 39 | 0.0 | 1.0 | 0.00 | 0.00 | 0.00 | 56 | 1025.4 |
| 20260903113418 | 73 | 295 | 1.0 | 0.0 | 0.00 | 0.00 | 0.00 | 56 | 1025.5 |
| 20260903113208 | 73 | 293 | 2.0 | 6.0 | 0.00 | 0.00 | 0.00 | 58 | 1025.5 |
| 20260903113006 | 72 | 236 | 2.0 | 6.0 | 0.00 | 0.00 | 0.00 | 60 | 1025.4 |
| 20260903112805 | 72 | 245 | 1.0 | 6.0 | 0.00 | 0.00 | 0.00 | 62 | 1025.5 |
| 20260903112605 | 72 | 241 | 2.0 | 6.0 | 0.00 | 0.00 | 0.00 | 62 | 1025.5 |
| 20260903111721 | 72 | 236 | 1.0 | 6.0 | 0.00 | 0.00 | 0.00 | 62 | 1025.5 |
| 20260903111517 | 72 | 307 | 1.0 | 5.0 | 0.00 | 0.00 | 0.00 | 61 | 1025.5 |
| 20260903111313 | 72 | 223 | 1.0 | 5.0 | 0.00 | 0.00 | 0.00 | 62 | 1025.4 |
| 20260903111109 | 72 | 230 | 2.0 | 5.0 | 0.00 | 0.00 | 0.00 | 64 | 1025.5 |
| 20260903110859 | 71 | 241 | 1.0 | 5.0 | 0.00 | 0.00 | 0.00 | 62 | 1025.4 |
| 20260903110654 | 71 | 236 | 1.0 | 5.0 | 0.00 | 0.00 | 0.00 | 61 | 1025.6 |
| 20260903110453 | 71 | 227 | 1.0 | 6.0 | 0.00 | 0.00 | 0.00 | 60 | 1025.6 |
| 20260903110252 | 71 | 289 | 1.0 | 6.0 | 0.00 | 0.00 | 0.00 | 59 | 1025.5 |
| 20260903110046 | 71 | 269 | 1.0 | 6.0 | 0.00 | 0.00 | 0.00 | 63 | 1025.6 |
| 20260903105837 | 71 | 300 | 2.0 | 6.0 | 0.00 | 0.00 | 0.00 | 61 | 1025.5 |
| 20260903105630 | 71 | 299 | 2.0 | 6.0 | 0.00 | 0.00 | 0.00 | 60 | 1025.5 |
| 20260903105430 | 71 | 299 | 2.0 | 6.0 | 0.00 | 0.00 | 0.00 | 63 | 1025.6 |
| 20260903105230 | 71 | 244 | 2.0 | 6.0 | 0.00 | 0.00 | 0.00 | 62 | 1025.6 |
| 20260903104656 | 71 | 243 | 1.0 | 6.0 | 0.00 | 0.00 | 0.00 | 60 | 1025.4 |
| 20260903104447 | 71 | 307 | 1.0 | 6.0 | 0.00 | 0.00 | 0.00 | 60 | 1025.3 |
| 20260903104240 | 71 | 266 | 2.0 | 6.0 | 0.00 | 0.00 | 0.00 | 59 | 1025.4 |
| 20260903104038 | 71 | 222 | 2.0 | 6.0 | 0.00 | 0.00 | 0.00 | 58 | 1025.4 |
| 20260903103834 | 71 | 245 | 2.0 | 6.0 | 0.00 | 0.00 | 0.00 | 61 | 1025.3 |
| 20260903103631 | 71 | 235 | 2.0 | 6.0 | 0.00 | 0.00 | 0.00 | 59 | 1025.3 |
| 20260903103431 | 71 | 237 | 2.0 | 6.0 | 0.00 | 0.00 | 0.00 | 61 | 1025.4 |
| 20260903103229 | 71 | 250 | 1.0 | 6.0 | 0.00 | 0.00 | 0.00 | 62 | 1025.4 |
| 20260903103029 | 71 | 264 | 1.0 | 6.0 | 0.00 | 0.00 | 0.00 | 63 | 1025.4 |
| 20260903102822 | 71 | 270 | 1.0 | 5.0 | 0.00 | 0.00 | 0.00 | 64 | 1025.4 |
| 20260903102613 | 70 | 276 | 1.0 | 5.0 | 0.00 | 0.00 | 0.00 | 63 | 1025.3 |
| 20260903102410 | 70 | 271 | 1.0 | 5.0 | 0.00 | 0.00 | 0.00 | 65 | 1025.4 |
| 20260903102207 | 70 | 252 | 1.0 | 4.0 | 0.00 | 0.00 | 0.00 | 62 | 1025.4 |
| 20260903101959 | 71 | 226 | 1.0 | 4.0 | 0.00 | 0.00 | 0.00 | 60 | 1025.4 |
| 20260903101427 | 70 | 241 | 1.0 | 6.0 | 0.00 | 0.00 | 0.00 | 61 | 1025.4 |
| 20260903101218 | 70 | 224 | 1.0 | 6.0 | 0.00 | 0.00 | 0.00 | 63 | 1025.4 |
| 20260903101009 | 70 | 252 | 1.0 | 6.0 | 0.00 | 0.00 | 0.00 | 64 | 1025.6 |
| 20260903100807 | 70 | 306 | 1.0 | 5.0 | 0.00 | 0.00 | 0.00 | 62 | 1025.7 |
| 20260903100608 | 70 | 300 | 1.0 | 5.0 | 0.00 | 0.00 | 0.00 | 63 | 1025.6 |
| 20260903100401 | 70 | 309 | 1.0 | 5.0 | 0.00 | 0.00 | 0.00 | 62 | 1025.8 |
| 20260903095841 | 70 | 232 | 1.0 | 4.0 | 0.00 | 0.00 | 0.00 | 63 | 1025.6 |
| 20260903095635 | 70 | 250 | 1.0 | 0.0 | 0.00 | 0.00 | 0.00 | 64 | 1025.7 |
| 20260903095430 | 70 | 227 | 1.0 | 6.0 | 0.00 | 0.00 | 0.00 | 67 | 1025.6 |
| 20260903095223 | 70 | 227 | 1.0 | 5.0 | 0.00 | 0.00 | 0.00 | 64 | 1025.6 |
| 20260903094702 | 69 | 274 | 1.0 | 5.0 | 0.00 | 0.00 | 0.00 | 62 | 1025.5 |
| 20260903094455 | 69 | 302 | 1.0 | 5.0 | 0.00 | 0.00 | 0.00 | 64 | 1025.6 |
| 20260903094250 | 69 | 279 | 1.0 | 5.0 | 0.00 | 0.00 | 0.00 | 64 | 1025.5 |
| 20260903094046 | 69 | 230 | 1.0 | 5.0 | 0.00 | 0.00 | 0.00 | 65 | 1025.5 |
| 20260903093520 | 69 | 226 | 2.0 | 5.0 | 0.00 | 0.00 | 0.00 | 68 | 1025.5 |
| 20260903093319 | 69 | 226 | 2.0 | 5.0 | 0.00 | 0.00 | 0.00 | 66 | 1025.6 |
| 20260903093114 | 69 | 256 | 2.0 | 5.0 | 0.00 | 0.00 | 0.00 | 67 | 1025.5 |
| 20260903092554 | 69 | 237 | 1.0 | 5.0 | 0.00 | 0.00 | 0.00 | 69 | 1025.4 |
| 20260903092352 | 69 | 220 | 1.0 | 5.0 | 0.00 | 0.00 | 0.00 | 67 | 1025.4 |
| 20260903092146 | 69 | 245 | 0.0 | 5.0 | 0.00 | 0.00 | 0.00 | 67 | 1025.3 |
| 20260903091944 | 69 | 265 | 0.0 | 5.0 | 0.00 | 0.00 | 0.00 | 67 | 1025.4 |
| 20260903091108 | 69 | 102 | 0.0 | 2.0 | 0.00 | 0.00 | 0.00 | 68 | 1025.4 |
| 20260903090900 | 68 | 236 | 0.0 | 2.0 | 0.00 | 0.00 | 0.00 | 69 | 1025.5 |
| 20260903090659 | 68 | 269 | 0.0 | 2.0 | 0.00 | 0.00 | 0.00 | 68 | 1025.5 |
| 20260903090455 | 68 | 295 | 0.0 | 4.0 | 0.00 | 0.00 | 0.00 | 68 | 1025.5 |
| 20260903085606 | 67 | 282 | 0.0 | 4.0 | 0.00 | 0.00 | 0.00 | 69 | 1025.7 |
| 20260903085403 | 67 | 290 | 1.0 | 6.0 | 0.00 | 0.00 | 0.00 | 68 | 1025.7 |
| 20260903084839 | 67 | 298 | 1.0 | 6.0 | 0.00 | 0.00 | 0.00 | 69 | 1025.6 |
| 20260903084640 | 67 | 285 | 1.0 | 6.0 | 0.00 | 0.00 | 0.00 | 69 | 1025.5 |
| 20260903084438 | 67 | 286 | 1.0 | 6.0 | 0.00 | 0.00 | 0.00 | 69 | 1025.4 |
| 20260903084232 | 67 | 292 | 1.0 | 6.0 | 0.00 | 0.00 | 0.00 | 69 | 1025.4 |
| 20260903084029 | 67 | 299 | 1.0 | 6.0 | 0.00 | 0.00 | 0.00 | 69 | 1025.4 |
| 20260903083823 | 67 | 285 | 2.0 | 6.0 | 0.00 | 0.00 | 0.00 | 68 | 1025.5 |
| 20260903083618 | 67 | 300 | 1.0 | 6.0 | 0.00 | 0.00 | 0.00 | 70 | 1025.5 |
| 20260903083419 | 67 | 286 | 1.0 | 5.0 | 0.00 | 0.00 | 0.00 | 71 | 1025.5 |
| 20260903083213 | 67 | 278 | 1.0 | 5.0 | 0.00 | 0.00 | 0.00 | 70 | 1025.6 |
| 20260903082652 | 67 | 289 | 0.0 | 4.0 | 0.00 | 0.00 | 0.00 | 70 | 1025.3 |
| 20260903082443 | 68 | 242 | 0.0 | 4.0 | 0.00 | 0.00 | 0.00 | 72 | 1025.4 |
| 20260903082240 | 68 | 273 | 0.0 | 4.0 | 0.00 | 0.00 | 0.00 | 72 | 1025.4 |
| 20260903082040 | 67 | 270 | 0.0 | 4.0 | 0.00 | 0.00 | 0.00 | 71 | 1025.4 |
| 20260903081836 | 67 | 244 | 1.0 | 4.0 | 0.00 | 0.00 | 0.00 | 71 | 1025.4 |
| 20260903081636 | 67 | 241 | 0.0 | 3.0 | 0.00 | 0.00 | 0.00 | 69 | 1025.4 |
| 20260903081428 | 67 | 236 | 0.0 | 3.0 | 0.00 | 0.00 | 0.00 | 69 | 1025.4 |
| 20260903081228 | 67 | 235 | 0.0 | 3.0 | 0.00 | 0.00 | 0.00 | 71 | 1025.3 |
| 20260903081027 | 67 | 239 | 0.0 | 4.0 | 0.00 | 0.00 | 0.00 | 71 | 1025.3 |
| 20260903080819 | 67 | 264 | 0.0 | 4.0 | 0.00 | 0.00 | 0.00 | 73 | 1025.2 |
| 20260903080620 | 67 | 265 | 0.0 | 4.0 | 0.00 | 0.00 | 0.00 | 72 | 1025.3 |
| 20260903080413 | 67 | 281 | 1.0 | 4.0 | 0.00 | 0.00 | 0.00 | 70 | 1025.2 |
| 20260903080208 | 67 | 227 | 1.0 | 4.0 | 0.00 | 0.00 | 0.00 | 72 | 1025.2 |
| 20260903075643 | 67 | 240 | 1.0 | 4.0 | 0.00 | 0.00 | 0.00 | 70 | 1025.1 |
| 20260903075444 | 67 | 224 | 1.0 | 4.0 | 0.00 | 0.00 | 0.00 | 70 | 1025.2 |
| 20260903075240 | 67 | 231 | 1.0 | 4.0 | 0.00 | 0.00 | 0.00 | 71 | 1025.1 |
| 20260903074717 | 67 | 253 | 0.0 | 3.0 | 0.00 | 0.00 | 0.00 | 73 | 1025.2 |
| 20260903074510 | 67 | 233 | 0.0 | 3.0 | 0.00 | 0.00 | 0.00 | 72 | 1025.2 |
| 20260903074309 | 67 | 274 | 0.0 | 3.0 | 0.00 | 0.00 | 0.00 | 71 | 1025.1 |
| 20260903074110 | 67 | 236 | 0.0 | 3.0 | 0.00 | 0.00 | 0.00 | 72 | 1025.2 |
| 20260903073901 | 67 | 259 | 0.0 | 3.0 | 0.00 | 0.00 | 0.00 | 72 | 1025.1 |
| 20260903073654 | 67 | 242 | 0.0 | 5.0 | 0.00 | 0.00 | 0.00 | 73 | 1025.2 |
| 20260903073452 | 66 | 240 | 0.0 | 5.0 | 0.00 | 0.00 | 0.00 | 73 | 1025.2 |
| 20260903072934 | 66 | 239 | 0.0 | 5.0 | 0.00 | 0.00 | 0.00 | 72 | 1025.1 |
| 20260903072413 | 66 | 232 | 1.0 | 5.0 | 0.00 | 0.00 | 0.00 | 73 | 1025.1 |
| 20260903072211 | 66 | 236 | 1.0 | 5.0 | 0.00 | 0.00 | 0.00 | 73 | 1025.0 |
| 20260903071648 | 66 | 231 | 1.0 | 4.0 | 0.00 | 0.00 | 0.00 | 73 | 1025.1 |
| 20260903071448 | 66 | 210 | 0.0 | 4.0 | 0.00 | 0.00 | 0.00 | 72 | 1025.1 |
| 20260903070933 | 66 | 234 | 0.0 | 3.0 | 0.00 | 0.00 | 0.00 | 72 | 1025.1 |
| 20260903070415 | 66 | 244 | 0.0 | 0.0 | 0.00 | 0.00 | 0.00 | 76 | 1025.0 |
| 20260903070207 | 66 | 244 | 0.0 | 1.0 | 0.00 | 0.00 | 0.00 | 75 | 1025.2 |
| 20260903070007 | 66 | 244 | 0.0 | 1.0 | 0.00 | 0.00 | 0.00 | 74 | 1025.3 |
| 20260903065759 | 66 | 243 | 0.0 | 1.0 | 0.00 | 0.00 | 0.00 | 75 | 1025.4 |
| 20260903065559 | 66 | 231 | 0.0 | 1.0 | 0.00 | 0.00 | 0.00 | 75 | 1025.4 |
| 20260903065356 | 66 | 238 | 0.0 | 1.0 | 0.00 | 0.00 | 0.00 | 73 | 1025.3 |
| 20260903065150 | 66 | 237 | 0.0 | 1.0 | 0.00 | 0.00 | 0.00 | 74 | 1025.3 |
| 20260903064950 | 66 | 237 | 0.0 | 1.0 | 0.00 | 0.00 | 0.00 | 74 | 1025.3 |
| 20260903064414 | 66 | 188 | 0.0 | 0.0 | 0.00 | 0.00 | 0.00 | 74 | 1025.4 |
| 20260903064210 | 66 | 99 | 0.0 | 0.0 | 0.00 | 0.00 | 0.00 | 74 | 1025.3 |
| 20260903064008 | 66 | 89 | 0.0 | 0.0 | 0.00 | 0.00 | 0.00 | 76 | 1025.3 |
| 20260903062759 | 65 | 117 | 0.0 | 3.0 | 0.00 | 0.00 | 0.00 | 75 | 1025.1 |
| 20260903062552 | 65 | 134 | 0.0 | 2.0 | 0.00 | 0.00 | 0.00 | 75 | 1025.2 |
| 20260903062345 | 65 | 115 | 0.0 | 2.0 | 0.00 | 0.00 | 0.00 | 74 | 1025.2 |
| 20260903062138 | 65 | 120 | 0.0 | 1.0 | 0.00 | 0.00 | 0.00 | 75 | 1025.1 |
| 20260903061936 | 65 | 224 | 0.0 | 0.0 | 0.00 | 0.00 | 0.00 | 75 | 1025.1 |
| 20260903061728 | 64 | 233 | 0.0 | 0.0 | 0.00 | 0.00 | 0.00 | 75 | 1025.1 |
| 20260903061527 | 64 | 233 | 0.0 | 0.0 | 0.00 | 0.00 | 0.00 | 74 | 1025.0 |
| 20260903061316 | 64 | 233 | 0.0 | 0.0 | 0.00 | 0.00 | 0.00 | 75 | 1025.0 |
| 20260903061107 | 64 | 233 | 0.0 | 0.0 | 0.00 | 0.00 | 0.00 | 75 | 1025.0 |
| 20260903060906 | 64 | 233 | 0.0 | 0.0 | 0.00 | 0.00 | 0.00 | 75 | 1025.0 |
| 20260903060702 | 64 | 233 | 0.0 | 0.0 | 0.00 | 0.00 | 0.00 | 75 | 1024.8 |
| 20260903060452 | 63 | 233 | 0.0 | 0.0 | 0.00 | 0.00 | 0.00 | 75 | 1024.8 |
| 20260903060249 | 63 | 233 | 0.0 | 0.0 | 0.00 | 0.00 | 0.00 | 75 | 1024.7 |
| 20260903060050 | 63 | 233 | 0.0 | 0.0 | 0.00 | 0.00 | 0.00 | 75 | 1024.7 |
| 20260903055847 | 63 | 224 | 0.0 | 1.0 | 0.00 | 0.00 | 0.00 | 75 | 1024.7 |
| 20260903055637 | 63 | 219 | 0.0 | 1.0 | 0.00 | 0.00 | 0.00 | 76 | 1024.6 |
| 20260903055431 | 63 | 218 | 0.0 | 1.0 | 0.00 | 0.00 | 0.00 | 76 | 1024.7 |
| 20260903055220 | 63 | 225 | 0.0 | 1.0 | 0.00 | 0.00 | 0.00 | 76 | 1024.7 |
| 20260903055010 | 63 | 151 | 0.0 | 0.0 | 0.00 | 0.00 | 0.00 | 76 | 1024.7 |
| 20260903054803 | 63 | 151 | 0.0 | 0.0 | 0.00 | 0.00 | 0.00 | 76 | 1024.8 |
| 20260903054555 | 63 | 109 | 0.0 | 0.0 | 0.00 | 0.00 | 0.00 | 76 | 1024.9 |
| 20260903054349 | 62 | 108 | 0.0 | 0.0 | 0.00 | 0.00 | 0.00 | 76 | 1024.8 |
| 20260903054139 | 62 | 109 | 0.0 | 0.0 | 0.00 | 0.00 | 0.00 | 75 | 1024.8 |
| 20260903053936 | 62 | 108 | 0.0 | 0.0 | 0.00 | 0.00 | 0.00 | 76 | 1024.7 |
| 20260903053729 | 62 | 109 | 0.0 | 0.0 | 0.00 | 0.00 | 0.00 | 75 | 1024.6 |
| 20260903053210 | 62 | 109 | 0.0 | 0.0 | 0.00 | 0.00 | 0.00 | 75 | 1024.6 |
| 20260903053006 | 62 | 108 | 0.0 | 0.0 | 0.00 | 0.00 | 0.00 | 75 | 1024.6 |
| 20260903052803 | 62 | 108 | 0.0 | 0.0 | 0.00 | 0.00 | 0.00 | 75 | 1024.7 |
| 20260903052601 | 62 | 108 | 0.0 | 0.0 | 0.00 | 0.00 | 0.00 | 75 | 1024.6 |
| 20260903052353 | 62 | 109 | 0.0 | 0.0 | 0.00 | 0.00 | 0.00 | 76 | 1024.5 |
| 20260903052151 | 61 | 108 | 0.0 | 0.0 | 0.00 | 0.00 | 0.00 | 76 | 1024.5 |
| 20260903051942 | 61 | 108 | 0.0 | 0.0 | 0.00 | 0.00 | 0.00 | 76 | 1024.4 |
| 20260903051735 | 61 | 113 | 0.0 | 4.0 | 0.00 | 0.00 | 0.00 | 77 | 1024.3 |
| 20260903051528 | 61 | 113 | 1.0 | 4.0 | 0.00 | 0.00 | 0.00 | 77 | 1024.4 |
| 20260903051324 | 60 | 116 | 1.0 | 4.0 | 0.00 | 0.00 | 0.00 | 78 | 1024.4 |
| 20260903051121 | 60 | 143 | 1.0 | 4.0 | 0.00 | 0.00 | 0.00 | 78 | 1024.4 |